TimeCDT,TemperatureF,Dew PointF,Humidity,Sea Level PressureIn,VisibilityMPH,Wind Direction,Wind SpeedMPH,Gust SpeedMPH,PrecipitationIn,Events,Conditions,WindDirDegrees,DateUTC
12:53 AM,69.1,62.1,78,30.05,9.0,SE,9.2,-,N/A,,Overcast,140,2013-08-18 05:53:00
1:53 AM,68.0,62.1,81,30.06,9.0,SSE,8.1,-,N/A,,Mostly Cloudy,150,2013-08-18 06:53:00
2:53 AM,66.9,62.1,84,30.04,9.0,SSE,9.2,-,N/A,,Partly Cloudy,160,2013-08-18 07:53:00
3:53 AM,64.9,61.0,87,30.04,8.0,SE,3.5,-,N/A,,Clear,130,2013-08-18 08:53:00
4:53 AM,66.0,61.0,84,30.03,8.0,SSE,6.9,-,N/A,,Overcast,150,2013-08-18 09:53:00
5:53 AM,64.0,61.0,90,30.04,7.0,SSE,6.9,-,N/A,,Mostly Cloudy,150,2013-08-18 10:53:00
6:53 AM,62.1,60.1,93,30.04,5.0,ESE,3.5,-,N/A,,Clear,120,2013-08-18 11:53:00
7:53 AM,63.0,60.1,90,30.05,3.0,ESE,3.5,-,N/A,,Partly Cloudy,120,2013-08-18 12:53:00
8:53 AM,66.9,62.1,84,30.05,5.0,SE,5.8,-,N/A,,Haze,140,2013-08-18 13:53:00
9:53 AM,70.0,62.1,76,30.04,7.0,South,15.0,-,N/A,,Overcast,180,2013-08-18 14:53:00
10:53 AM,71.1,62.1,73,30.04,8.0,South,11.5,-,N/A,,Overcast,180,2013-08-18 15:53:00
11:53 AM,71.1,61.0,70,30.05,8.0,SSE,11.5,-,N/A,,Overcast,160,2013-08-18 16:53:00
12:53 PM,72.0,62.1,71,30.04,8.0,South,10.4,-,N/A,,Overcast,170,2013-08-18 17:53:00
1:53 PM,73.0,61.0,66,30.03,9.0,SSE,11.5,-,N/A,,Overcast,160,2013-08-18 18:53:00
2:53 PM,77.0,63.0,62,30.01,8.0,South,11.5,20.7,N/A,,Overcast,180,2013-08-18 19:53:00
3:11 PM,78.8,62.6,57,30.06,9.0,South,11.5,-,N/A,,Overcast,170,2013-08-18 20:11:00
3:53 PM,82.0,63.0,52,29.97,10.0,SSE,11.5,21.9,N/A,,Scattered Clouds,160,2013-08-18 20:53:00
4:53 PM,84.0,63.0,49,29.96,10.0,South,11.5,21.9,N/A,,Clear,180,2013-08-18 21:53:00
5:53 PM,84.9,62.1,46,29.95,10.0,South,15.0,-,N/A,,Clear,170,2013-08-18 22:53:00
6:53 PM,82.0,63.0,52,29.95,10.0,South,9.2,-,N/A,,Clear,180,2013-08-18 23:53:00
7:53 PM,80.1,63.0,56,29.96,10.0,SE,9.2,-,N/A,,Partly Cloudy,130,2013-08-19 00:53:00
8:53 PM,77.0,62.1,60,29.99,10.0,SE,10.4,-,N/A,,Mostly Cloudy,140,2013-08-19 01:53:00
9:53 PM,73.9,63.0,68,30.01,10.0,SE,9.2,-,N/A,,Partly Cloudy,130,2013-08-19 02:53:00
10:53 PM,73.0,63.0,71,30.04,10.0,SSE,5.8,-,N/A,,Overcast,150,2013-08-19 03:53:00
11:53 PM,70.0,63.0,78,30.03,10.0,SSE,6.9,-,N/A,,Scattered Clouds,150,2013-08-19 04:53:00